User: anonymous   Login
Location: Unspecified
(0.0000°N, 0.0000°E)
Time: 10:16:04
(UTC+00:00)
Language:

P76-5 - Orbit

View from above orbital plane
View from above orbital plane
View from above satellite
View from above satellite

Ground track
Ground track

The orbit data is extracted from the following two-line orbital elements,

1  8860U 76047A   19081.95343462 -.00000000 +00000-0 +53903-4 0  9996
2  8860 099.7203 203.1734 0041597 242.5684 229.4746 13.67601199135029
Epoch (UTC): 22 March 2019 22:52:56
Eccentricity: 0.0041597
inclination: 99.7203°
perigee height: 977 km
apogee height: 1039 km
right ascension of ascending node: 203.1734°
argument of perigee: 242.5684°
revolutions per day: 13.67601199
mean anomaly at epoch: 229.4746°
orbit number at epoch: 13502

The dashed part of the orbit path shows where the satellite is in the earth's shadow,  

DLR